This is the latest recevied weather packets stored in our database for station/object WE1C. If no packets are shown the sender has not sent any weather packets the latest 10 day(s).
| Time | Temp. | Humidity | Pressure | Rain* | Wind** | Luminosity | Snow |
|---|---|---|---|---|---|---|---|
| 1777579869 | 11.67° C | 91% | 1034.1 hPa | 0 mm | - | 126 W/m² | - |
| 1777579568 | 11.11° C | 92% | 1034.3 hPa | 0 mm | - | 184 W/m² | - |
| 1777579262 | 10.56° C | 95% | 1034.6 hPa | 0 mm | - | 249 W/m² | - |
| 1777578958 | 10.56° C | 96% | 1034.5 hPa | 0 mm | - | 197 W/m² | - |
| 1777578653 | 10.56° C | 99% | 1034.5 hPa | 0 mm | - | 211 W/m² | - |
| 1777578352 | 10.56° C | 99% | 1034.4 hPa | 0 mm | - | 252 W/m² | - |
| 1777578049 | 11.11° C | 99% | 1034.3 hPa | 0 mm | - | 340 W/m² | - |
| 1777577744 | 10.56° C | 99% | 1034.4 hPa | 0 mm | - | 301 W/m² | - |
| 1777577441 | 10° C | 99% | 1034.6 hPa | 0 mm | - | 107 W/m² | - |
| 1777577138 | 10° C | 99% | 1034.5 hPa | 0 mm | - | 100 W/m² | - |
| 1777576834 | 10° C | 99% | 1034.7 hPa | 0 mm | - | 137 W/m² | - |
| 1777576533 | 10° C | 99% | 1034.8 hPa | 0 mm | - | 154 W/m² | - |
| 1777576230 | 10° C | 99% | 1034.7 hPa | 0 mm | - | 130 W/m² | - |
| 1777575926 | 10° C | 99% | 1034.8 hPa | 0 mm | - | 78 W/m² | - |
| 1777575622 | 10° C | 99% | 1034.9 hPa | 0 mm | - | 69 W/m² | - |
| 1777575318 | 10° C | 99% | 1034.8 hPa | 0 mm | - | 74 W/m² | - |
| 1777575014 | 10° C | 99% | 1034.6 hPa | 0 mm | - | 109 W/m² | - |
| 1777574710 | 10° C | 99% | 1034.6 hPa | 0 mm | - | 164 W/m² | - |
| 1777574408 | 10° C | 99% | 1034.6 hPa | 0 mm | - | 154 W/m² | - |
| 1777574103 | 10° C | 99% | 1034.5 hPa | 0 mm | - | 177 W/m² | - |
| 1777573798 | 10° C | 99% | 1034.7 hPa | 0 mm | - | 219 W/m² | - |
| 1777573494 | 10° C | 99% | 1034.8 hPa | 0 mm | - | 198 W/m² | - |
| 1777573190 | 10° C | 99% | 1034.8 hPa | 0 mm | - | 212 W/m² | - |
| 1777572887 | 10° C | 99% | 1035 hPa | 0 mm | - | 246 W/m² | - |
| 1777572583 | 10° C | 99% | 1035 hPa | 0 mm | - | 260 W/m² | - |
* Rain latest hour (hover to see other rain measurements)
** Current wind speed in m/s (hover to see current wind gust speed)